Tracking 20242 objects as of 24-Jan-2020
HD Live streaming from Space Station
objects crossing your sky now

TITAN 3C TRANSTAGE DEB

Track TITAN 3C TRANSTAGE DEB now!


NORAD ID: 26525
Int'l Code: 1965-108AL
Perigee: 603.4 km
Apogee: 29,022.7 km
Inclination: 26.2 °
Period: 511.4 minutes
Semi major axis: 21184 km
RCS: 0.1939 m2 (medium)
Launch date: December 21, 1965
Source: United States (US)
Launch site: AIR FORCE EASTERN TEST RANGE (AFETR)

Note: This is SATELLITE DEBRIS
aabbcc
Your satellite tracking list
Your tracking list is empty




NASA's NSSDC Master Catalog

Two Line Element Set (TLE):
1 26525U 65108AL  20024.47333369 -.00000272  00000-0 -17119-2 0  9990
2 26525  26.2374 129.4081 6707702  70.1111   1.3824  2.81571262205167
Source of the keplerian elements: AFSPC